STARLINK-36062 (66794 NORAD) Tracking and Keplerian Element Data

This shows tracking and keplerian element data for the satellite.

Feedback or suggestion? Click here.




ElementValue
Catalog66794
NameSTARLINK-36062
Epoch Orbit416
Epoch Day354.25003472
Epoch Year2025
RAAN206.4674
Inclination42.9996
Eccentricity0.000134
Argument of Perigee261.9656
Mean Anonmoly324.4741
Mean Motion15.63550382
Decay Rate-0.01995762
L11 66794U 25278D 25354.25003472 -.01995762 00000+0 -23799-1 0 9999
L22 66794 42.9996 206.4674 0001340 261.9656 324.4741 15.63550382 4169



Live tracking and technical data element details for STARLINK-36062 (NORAD 66794). STARLINK-36062 can be tracked NOW for your location showing map with azimuth and elevation plus other details from your city location.







IsCatalogInMostPopularTable: catalog: 66794, numindb: 21
Update: records affected: 1



GetName: 66794 STARLINK-36062

Hit Count: updated at: Tue, 21 Apr 2026 20:13:09 GMT